Hanford, WA
on Wednesday, February 6, 2013

Wednesday
Previous Day Next Day
Daily Summary
 ActualAverage (KMWH)Record (KMWH)
Temperature
Mean Temperature °F / °C 33°F / 1°C  
Max Temperature 52°F / 11°C 41°F / 5°C 50°F / 10°C (1998)
Min Temperature 37°F / 3°C 26°F / -3°C -4°F / -20°C (1985)
Degree Days
Heating Degree Days 20 32  
Month to date heating degree days 193  
Since 1 July heating degree days 3867  
Cooling Degree Days 0 0  
Month to date cooling degree days 0  
Year to date cooling degree days 0  
Moisture
Dew Point 32°F / 0°C   
Average Humidity 60    
Maximum Humidity 78    
Minimum Humidity 43    
Precipitation
Precipitation 0.00 in / 0.00 cm 0.04 in / 1.02 cm 0.14 in / 0.36 cm (1999)
Month to date precipitation 0.23  
Year to date precipitation 1.37  
Wind
Wind Speed 12 mph / 19 km/h   
Max Wind Speed 20 mph / 32 km/h   
Max Gust Speed 26 mph / 42 km/h   
Visibility 15 miles / 24 kilometers   
Events     

Key: T is trace of precipitation, MM is missing value
Source: NWS Daily Summary
Time(PST)TemperatureDew PointHumidity Pressure Visibility Wind DirectionWind SpeedGust SpeedPrecipitationEvents Conditions
12:50 AM 39.9°F / 4.4°C 31.6°F / -0.2°C 72% 29.95 in / 1014.0 hPa 15.0 miles / 24.1 kilometers WSW 12.7 mph / 20.4 km/h - N/A   Scattered Clouds
1:50 AM 43.7°F / 6.5°C 35.2°F / 1.8°C 72% 29.96 in / 1014.6 hPa 15.0 miles / 24.1 kilometers WSW 9.2 mph / 14.8 km/h - N/A   Overcast
2:50 AM 43.9°F / 6.6°C 32.9°F / 0.5°C 65% 29.98 in / 1015.0 hPa 15.0 miles / 24.1 kilometers SW 13.8 mph / 22.2 km/h - N/A   Overcast
3:50 AM 43.7°F / 6.5°C 33.6°F / 0.9°C 68% 29.97 in / 1014.8 hPa 15.0 miles / 24.1 kilometers SW 16.1 mph / 25.9 km/h - N/A   Mostly Cloudy
4:50 AM 42.3°F / 5.7°C 32.4°F / 0.2°C 68% 29.99 in / 1015.5 hPa 15.0 miles / 24.1 kilometers SW 13.8 mph / 22.2 km/h - N/A   Partly Cloudy
5:50 AM 37.9°F / 3.3°C 30.6°F / -0.8°C 75% 30.00 in / 1015.7 hPa 15.0 miles / 24.1 kilometers NW 5.8 mph / 9.3 km/h - N/A   Partly Cloudy
6:50 AM 39.4°F / 4.1°C 32.0°F / 0.0°C 75% 30.01 in / 1016.1 hPa 15.0 miles / 24.1 kilometers WSW 9.2 mph / 14.8 km/h - N/A   Partly Cloudy
7:50 AM 41.7°F / 5.4°C 31.3°F / -0.4°C 66% 30.02 in / 1016.4 hPa 15.0 miles / 24.1 kilometers West 9.2 mph / 14.8 km/h - N/A   Partly Cloudy
8:50 AM 46.0°F / 7.8°C 31.8°F / -0.1°C 58% 30.03 in / 1016.9 hPa 15.0 miles / 24.1 kilometers WNW 9.2 mph / 14.8 km/h - N/A   Mostly Cloudy
9:50 AM 48.2°F / 9.0°C 30.7°F / -0.7°C 51% 30.06 in / 1017.7 hPa 15.0 miles / 24.1 kilometers SW 12.7 mph / 20.4 km/h - N/A   Mostly Cloudy
10:50 AM 50.2°F / 10.1°C 31.3°F / -0.4°C 48% 30.06 in / 1017.9 hPa 15.0 miles / 24.1 kilometers SSW 18.4 mph / 29.6 km/h - N/A   Overcast
11:50 AM 51.6°F / 10.9°C 29.8°F / -1.2°C 43% 30.06 in / 1017.7 hPa 15.0 miles / 24.1 kilometers SW 19.6 mph / 31.5 km/h 26.5 mph / 42.6 km/h N/A   Overcast
12:50 PM 51.1°F / 10.6°C 31.3°F / -0.4°C 47% 30.06 in / 1017.7 hPa 15.0 miles / 24.1 kilometers SW 17.3 mph / 27.8 km/h - N/A   Overcast
1:50 PM 52.2°F / 11.2°C 30.7°F / -0.7°C 44% 30.04 in / 1017.1 hPa 15.0 miles / 24.1 kilometers SW 17.3 mph / 27.8 km/h - N/A   Overcast
2:50 PM 51.3°F / 10.7°C 30.4°F / -0.9°C 45% 30.04 in / 1017.0 hPa 15.0 miles / 24.1 kilometers SSW 16.1 mph / 25.9 km/h - N/A   Overcast
3:50 PM 50.7°F / 10.4°C 30.9°F / -0.6°C 47% 30.00 in / 1015.9 hPa 15.0 miles / 24.1 kilometers SSW 12.7 mph / 20.4 km/h - N/A   Overcast
4:50 PM 47.5°F / 8.6°C 30.6°F / -0.8°C 52% 30.00 in / 1015.8 hPa 15.0 miles / 24.1 kilometers SSW 5.8 mph / 9.3 km/h - N/A   Overcast
5:50 PM 46.9°F / 8.3°C 31.1°F / -0.5°C 54% 29.99 in / 1015.4 hPa 15.0 miles / 24.1 kilometers SSE 9.2 mph / 14.8 km/h - N/A   Overcast
6:50 PM 45.7°F / 7.6°C 31.6°F / -0.2°C 58% 29.99 in / 1015.4 hPa 15.0 miles / 24.1 kilometers SSE 9.2 mph / 14.8 km/h - N/A   Overcast
10:50 PM 38.5°F / 3.6°C 31.6°F / -0.2°C 76% 29.92 in / 1013.0 hPa 15.0 miles / 24.1 kilometers NNW 4.6 mph / 7.4 km/h - N/A   Overcast
11:50 PM 38.3°F / 3.5°C 32.0°F / 0.0°C 78% 29.91 in / 1012.9 hPa 15.0 miles / 24.1 kilometers NW 9.2 mph / 14.8 km/h - N/A   Overcast
Moon Phase
Feb. 06 Feb. 10 Feb. 17 Feb. 25 Mar. 04
Sunrise:07:15 AM (PST) Moon Rise:04:10 AM (PST)2/6
Sunset:05:10 PM (PST) Moon Set:01:27 PM (PST)2/6

Copyright © 2014 The Weather Underground, Inc.